Weather in Tatarskiy Sayman

Russia / Ulyanovsk Oblast     53°17′28″N   47°07′28″E
temp.,
°C
wind,
m/s
gust,
m/s
humid.,
%
clouds,
%
prec.,
mm/h
press.,
hPa
HPBL,
m
6 march, sat
sat601:00−10w47950 0.0 101397
04:00−11w479629 0.0 1015122
07:00−13w349677 0.0 101679
10:00−10wnw359377 0.0 1017186
13:00−6nnw238095 0.0 1017502
16:00−6nw127297 0.0 1015632
19:00−10nnw1184100 0.0 101521
22:00−13w118784 0.0 101521
7 march, sun
sun701:00−14wnw229118 0.0 101420
04:00−15wnw238910 0.0 101420
07:00−15w34950 0.0 101442
10:00−11wsw579410 0.0 1014266
13:00−7wsw698624 0.0 1013776
16:00−6sw698358 0.0 1010947
19:00−8ssw61391100 0.1 1008725
22:00−7ssw81691100 0.1 1004843
8 march, mon
mon801:00−5ssw91793100 1.0 10001132
04:00−8wsw7158399 2.1 1000611
07:00−11wsw714861 0.0 1002331
10:00−8sw714761 0.0 1002683
13:00−5sw7127833 0.0 1000917
16:00−2wsw8138767 0.8 9991445
19:00−9w6148360 0.3 1001445
22:00−10w6139251 0.3 1004411
9 march, tue
tue901:00−12wsw5109493 0.0 1005257
04:00−12w6129497 0.1 1006329
07:00−13w5119393 0.0 1008295
10:00−11w6109187 0.1 1010445
13:00−8w588595 0.1 1011883
16:00−8wnw578597 0.2 1012993
19:00−12nw4891100 0.1 1013260
22:00−16wnw349559 0.1 101568
10 march, wed
wed1001:00−17wnw469754 0.0 1015100
04:00−18wnw369849 0.1 101691
07:00−20wnw489863 0.0 1017142
10:00−18wnw479350 0.0 1018307
13:00−14wnw468552 0.0 1017576
16:00−12wnw468168 0.0 1017842
19:00−16nw2392100 0.0 101721
22:00−20nw239479 0.0 101820